{"data":{"norad_id":62563,"intl_designator":"2025-006K","name":"STARLINK-11536 [DTC]","alt_names":[],"object_type":"PAYLOAD","status":"ACTIVE","operator":null,"country":"US","launch_date":"2025-01-10","launch_site_code":"AFETR","launch_vehicle":null,"mission":null,"orbit_class":"UNKNOWN","rcs_meters":null,"size_class":null,"mass_kg":null,"dimensions":null,"purposes":["comms"],"wikipedia_slug":null,"has_3d_model":false,"image_url":null,"decayed_at":null,"tle_current":{"epoch":"2026-09-21T15:37:42.271680Z","epoch_age_seconds":71880,"freshness":"FRESH","line1":"1 62563U 25006K   26264.65118370  .00153607  00000+0  11787-2 0  9993","line2":"2 62563  43.0019  38.5594 0002042 266.3838  93.6796 15.70837405 97421","mean_motion":15.70837405,"eccentricity":0.0002042,"inclination_deg":43.0019,"raan_deg":38.5594,"arg_perigee_deg":266.3838,"mean_anomaly_deg":93.6796,"bstar":0.0011787,"rev_number":9742,"period_min":91.670849918423,"perigee_km":355.12726519291,"apogee_km":357.87769195596,"semimajor_km":6734.6394785744,"source":"CELESTRAK","updated_at":"2026-09-22T09:00:49.627746Z"}}}